ONEWEB-0026, 45139

Orbit data source: Space-Track

ONEWEB-0026, 45139 is a payload satellite owned by One Web (UK) in LEO that was launched on Thu, 06 Feb 2020 UTC via a SOYUZ-2-1B launch vehicle from the Tyuratam Missile And Space Complex (TTMTR). Payload-class satellites include a variety of spacecraft equipped with specific instruments for various scientific and technological missions. These include communications satellites like Starlink; space stations such as the ISS; scientific satellites like the Hubble; Earth observation satellites from companies like Planet Labs, Umbra, and HawkEye 360; GPS; miniature CubeSats for education and research; and military/defense satellites.

Loading next visibility...
Identifier
45139, 2020-008J
Orbit
LEO
Country
Flag of UKUK
Related business
Manufacturer
One Web
Mission
Operational Commercial Communications
Bus & Motor
ARROW, Unknown motor
Mass
148 kg wet, ~140 kg dry
Launch date (UTC)
2020-02-06 (6 years ago)
Launch vehicle
SOYUZ-2-1B
Launch site
Tyuratam Missile And Space Complex (TTMTR)
Object type
Payload
Rocket body
Debris
Shape & HBR
Trap Box + 2 Pan, 6.7 m
Radar Cross Section
3.464 m², Large (>1 m²)

Expand to show TLE details & history
Last TLE update: 12 hours ago

TLE from 12 hours ago
0 ONEWEB-0026
1 45139U 20008J   26036.47034191  .00000541  00000-0  14892-2 0  9994
2 45139  87.8819  47.2729 0001882  96.0358 264.0984 13.11417296293840
Epoch: 2026-02-05T11:17Z
TLE epoch observation values (Epoch: 2026-02-05T11:17:17.541Z)
Latitude
-0.00004°
Longitude
102.3277°
Altitude
1,220.718 km
Speed
7.244 km/s
True Right ascension
03h 09m 05s
True Declination
0° 00' 00"
Sunlit
Object was in daylight at epoch
Visualization orbit readout
Latitude
Unknown
Longitude
Unknown
Altitude
Unknown
Speed
Unknown
Apparent Right ascension
Unknown
Apparent Declination
Unknown
Sunlit
N/A
Visualization observer readout
Local Sidereal Time
01:33:04
Azimuth
Unknown
Elevation
Unknown
Doppler factor
Unknown
Orbital elements
Apogee altitude
1,216.229 km
Perigee altitude
1,213.371 km
Semi-major axis
7,592.937 km
Eccentricity
0.00019
Inclination
87.8819°
RAAN
47.2729°
Arg. of periapsis
96.0358°
True anomaly
264.07695°
Mean anomaly
264.0984°
Eccentric anomaly
264.08767°
Mean motion
3.28041 °/min
Orbital period
109.74 mins
BSTAR
0.0014892
Loading maneuver chart data...
Computing Atmospheric mass density...
Loading historical data...
Loading historical data...
Loading historical data...
Loading historical data...
Loading historical data...
Loading historical data...
Loading historical data...

Documentation

Showing up to 5 results
|